Tracking 20232 objects as of 21-Jan-2020
HD Live streaming from Space Station
objects crossing your sky now

SL-14 R/B

Track SL-14 R/B now!
10-day predictions
SL-14 R/B is classified as:


NORAD ID: 18749
Int'l Code: 1988-001B
Perigee: 612.2 km
Apogee: 640.5 km
Inclination: 82.5 °
Period: 97.1 minutes
Semi major axis: 6997 km
RCS: 4.583 m2 (large)
Launch date: January 6, 1988
Source: Commonwealth of Independent States (former USSR) (CIS)
Launch site: PLESETSK MISSILE AND SPACE COMPLEX (PKMTR)

Note: This is a ROCKET BODY
aabbcc
Your satellite tracking list
Your tracking list is empty




NASA's NSSDC Master Catalog

Two Line Element Set (TLE):
1 18749U 88001B   20020.80916703 +.00000056 +00000-0 +38527-5 0  9995
2 18749 082.5157 136.9515 0020182 069.9463 043.6104 14.83207543709831
Source of the keplerian elements: AFSPC